Location: Croissy-Beaubourg
(48.8283°N, 2.6696°E)
Time: 03:55:06
(UTC+00:00)

USA 186 - Pass Details

Date: 16 October 2021
Orbit: 260 x 423 km, 96.9° (Epoch: 10 October)

Event Time Altitude Azimuth Distance (km) Brightness Sun altitude
Exits shadow 19:04:38 15° 3° (N) 1,240 4.2 -21.6°
Drops below altitude 10° 19:05:13 10° 359° (N) 1,481 4.6 -21.7°
Sets 19:07:14 0° 354° (N) 2,327 5.8 -22.0°
